Time,TemperatureF,DewpointF,PressureIn,WindDirection,WindDirectionDegrees,WindSpeedMPH,WindSpeedGustMPH,Humidity,HourlyPrecipIn,Conditions,Clouds,dailyrainin,SoftwareType,DateUTC
2013-05-14 00:01:00,68.0,61.0,29.96,South,170,7.0,-999.0,77,-99.99,,,-99.99,,2013-05-14 05:01:00,
2013-05-14 00:12:00,70.0,59.0,29.96,South,180,10.0,-999.0,68,-99.99,,,-99.99,,2013-05-14 05:12:00,
2013-05-14 00:21:00,70.0,57.0,29.95,South,180,9.0,-999.0,64,-99.99,,,-99.99,,2013-05-14 05:21:00,
2013-05-14 00:32:00,70.0,57.0,29.95,South,180,9.0,-999.0,64,-99.99,,,-99.99,,2013-05-14 05:32:00,
2013-05-14 00:42:00,70.0,57.0,29.95,South,180,9.0,-999.0,64,-99.99,,,-99.99,,2013-05-14 05:42:00,
2013-05-14 00:52:00,70.0,55.0,29.95,South,190,10.0,-999.0,60,-99.99,,,-99.99,,2013-05-14 05:52:00,
2013-05-14 01:01:00,70.0,55.0,29.95,South,190,10.0,-999.0,60,-99.99,,,-99.99,,2013-05-14 06:01:00,
2013-05-14 01:12:00,70.0,54.0,29.95,SSW,200,9.0,-999.0,56,-99.99,,,-99.99,,2013-05-14 06:12:00,
2013-05-14 01:22:00,70.0,54.0,29.95,SSW,200,9.0,-999.0,56,-99.99,,,-99.99,,2013-05-14 06:22:00,
2013-05-14 01:32:00,70.0,52.0,29.94,SSW,200,9.0,-999.0,52,-99.99,,,-99.99,,2013-05-14 06:32:00,
2013-05-14 01:42:00,70.0,52.0,29.94,SSW,210,9.0,-999.0,52,-99.99,,,-99.99,,2013-05-14 06:42:00,
2013-05-14 01:51:00,70.0,52.0,29.94,SSW,200,12.0,-999.0,52,-99.99,,,-99.99,,2013-05-14 06:51:00,
2013-05-14 02:02:00,70.0,52.0,29.94,SSW,200,12.0,-999.0,52,-99.99,,,-99.99,,2013-05-14 07:02:00,
2013-05-14 02:11:00,70.0,50.0,29.93,SSW,210,10.0,-999.0,49,-99.99,,,-99.99,,2013-05-14 07:11:00,
2013-05-14 02:21:00,70.0,50.0,29.93,SSW,210,13.0,-999.0,49,-99.99,,,-99.99,,2013-05-14 07:21:00,
2013-05-14 02:31:00,70.0,48.0,29.93,SSW,210,10.0,-999.0,46,-99.99,,,-99.99,,2013-05-14 07:31:00,
2013-05-14 02:41:00,70.0,48.0,29.93,SSW,210,10.0,-999.0,46,-99.99,,,-99.99,,2013-05-14 07:41:00,
2013-05-14 02:52:00,70.0,48.0,29.93,SSW,200,12.0,-999.0,46,-99.99,,,-99.99,,2013-05-14 07:52:00,
2013-05-14 03:02:00,70.0,48.0,29.93,SSW,200,12.0,-999.0,46,-99.99,,,-99.99,,2013-05-14 08:02:00,
2013-05-14 03:11:00,70.0,48.0,29.93,SSW,210,12.0,-999.0,46,-99.99,,,-99.99,,2013-05-14 08:11:00,
2013-05-14 03:21:00,68.0,46.0,29.93,SSW,210,10.0,-999.0,45,-99.99,,,-99.99,,2013-05-14 08:21:00,
2013-05-14 03:31:00,68.0,46.0,29.93,SSW,210,10.0,16.0,45,-99.99,,,-99.99,,2013-05-14 08:31:00,
2013-05-14 03:41:00,68.0,46.0,29.93,SSW,210,12.0,-999.0,45,-99.99,,,-99.99,,2013-05-14 08:41:00,
2013-05-14 03:51:00,68.0,46.0,29.93,SSW,210,10.0,-999.0,45,-99.99,,,-99.99,,2013-05-14 08:51:00,
2013-05-14 04:01:00,68.0,46.0,29.93,SSW,210,10.0,-999.0,45,-99.99,,,-99.99,,2013-05-14 09:01:00,
2013-05-14 04:11:00,68.0,45.0,29.92,SSW,210,12.0,-999.0,42,-99.99,,,-99.99,,2013-05-14 09:11:00,
2013-05-14 04:21:00,68.0,45.0,29.92,SSW,210,12.0,-999.0,42,-99.99,,,-99.99,,2013-05-14 09:21:00,
2013-05-14 04:32:00,68.0,45.0,29.92,SSW,210,10.0,-999.0,42,-99.99,,,-99.99,,2013-05-14 09:32:00,
2013-05-14 04:44:00,66.0,45.0,29.92,SSW,210,10.0,-999.0,45,-99.99,,,-99.99,,2013-05-14 09:44:00,
2013-05-14 04:54:00,66.0,45.0,29.92,SSW,210,9.0,-999.0,45,-99.99,,,-99.99,,2013-05-14 09:54:00,
2013-05-14 05:04:00,66.0,45.0,29.92,SSW,210,9.0,-999.0,45,-99.99,,,-99.99,,2013-05-14 10:04:00,
2013-05-14 05:14:00,66.0,45.0,29.92,SSW,210,8.0,-999.0,45,-99.99,,,-99.99,,2013-05-14 10:14:00,
2013-05-14 05:25:00,66.0,45.0,29.92,SSW,210,8.0,-999.0,45,-99.99,,,-99.99,,2013-05-14 10:25:00,
2013-05-14 05:33:00,66.0,45.0,29.92,SSW,210,8.0,-999.0,45,-99.99,,,-99.99,,2013-05-14 10:33:00,
2013-05-14 05:42:00,64.0,45.0,29.93,SSW,210,8.0,-999.0,48,-99.99,,,-99.99,,2013-05-14 10:42:00,
2013-05-14 05:52:00,64.0,45.0,29.93,SW,220,7.0,-999.0,48,-99.99,,,-99.99,,2013-05-14 10:52:00,
2013-05-14 06:02:00,64.0,45.0,29.93,SW,220,7.0,-999.0,48,-99.99,,,-99.99,,2013-05-14 11:02:00,
2013-05-14 06:11:00,63.0,45.0,29.93,SSW,210,7.0,-999.0,51,-99.99,,,-99.99,,2013-05-14 11:11:00,
2013-05-14 06:21:00,63.0,45.0,29.93,SSW,210,7.0,-999.0,51,-99.99,,,-99.99,,2013-05-14 11:21:00,
2013-05-14 06:32:00,64.0,45.0,29.93,SSW,210,7.0,-999.0,48,-99.99,,,-99.99,,2013-05-14 11:32:00,
2013-05-14 06:43:00,64.0,45.0,29.93,SSW,210,8.0,-999.0,48,-99.99,,,-99.99,,2013-05-14 11:43:00,
2013-05-14 06:52:00,64.0,45.0,29.93,SSW,200,9.0,-999.0,48,-99.99,,,-99.99,,2013-05-14 11:52:00,
2013-05-14 07:02:00,64.0,45.0,29.93,SSW,200,9.0,-999.0,48,-99.99,,,-99.99,,2013-05-14 12:02:00,
2013-05-14 07:12:00,64.0,45.0,29.93,SSW,200,10.0,-999.0,48,-99.99,,,-99.99,,2013-05-14 12:12:00,
2013-05-14 07:21:00,66.0,45.0,29.93,SSW,200,10.0,-999.0,45,-99.99,,,-99.99,,2013-05-14 12:21:00,
2013-05-14 07:32:00,66.0,45.0,29.94,SSW,210,12.0,-999.0,45,-99.99,,,-99.99,,2013-05-14 12:32:00,
2013-05-14 07:42:00,66.0,45.0,29.94,SSW,210,13.0,-999.0,45,-99.99,,,-99.99,,2013-05-14 12:42:00,
2013-05-14 07:51:00,66.0,45.0,29.94,SSW,210,12.0,-999.0,45,-99.99,,,-99.99,,2013-05-14 12:51:00,
2013-05-14 08:01:00,66.0,45.0,29.94,SSW,210,12.0,-999.0,45,-99.99,,,-99.99,,2013-05-14 13:01:00,
2013-05-14 08:11:00,68.0,45.0,29.94,SSW,200,12.0,20.0,42,-99.99,,,-99.99,,2013-05-14 13:11:00,
2013-05-14 08:22:00,70.0,45.0,29.94,SSW,200,12.0,-999.0,40,-99.99,,,-99.99,,2013-05-14 13:22:00,
2013-05-14 08:32:00,70.0,45.0,29.95,SSW,210,12.0,-999.0,40,-99.99,,,-99.99,,2013-05-14 13:32:00,
2013-05-14 08:41:00,72.0,45.0,29.95,SSW,210,12.0,-999.0,37,-99.99,,,-99.99,,2013-05-14 13:41:00,
2013-05-14 08:52:00,72.0,45.0,29.95,SSW,210,10.0,-999.0,37,-99.99,,,-99.99,,2013-05-14 13:52:00,
2013-05-14 09:01:00,72.0,45.0,29.95,SSW,210,10.0,-999.0,37,-99.99,,,-99.99,,2013-05-14 14:01:00,
2013-05-14 09:11:00,73.0,46.0,29.95,SSW,210,12.0,-999.0,38,-99.99,,,-99.99,,2013-05-14 14:11:00,
2013-05-14 09:22:00,75.0,46.0,29.95,SSW,210,16.0,22.0,35,-99.99,,,-99.99,,2013-05-14 14:22:00,
2013-05-14 09:31:00,75.0,46.0,29.95,SSW,210,14.0,22.0,35,-99.99,,,-99.99,,2013-05-14 14:31:00,
2013-05-14 09:41:00,75.0,46.0,29.95,SW,220,15.0,21.0,35,-99.99,,,-99.99,,2013-05-14 14:41:00,
2013-05-14 09:52:00,79.0,46.0,29.95,SW,220,18.0,24.0,31,-99.99,,,-99.99,,2013-05-14 14:52:00,
2013-05-14 10:01:00,79.0,46.0,29.95,SW,220,18.0,24.0,31,-99.99,,,-99.99,,2013-05-14 15:01:00,
2013-05-14 10:12:00,79.0,46.0,29.95,SW,220,17.0,24.0,31,-99.99,,,-99.99,,2013-05-14 15:12:00,
2013-05-14 10:21:00,81.0,48.0,29.95,SW,220,16.0,25.0,32,-99.99,,,-99.99,,2013-05-14 15:21:00,
2013-05-14 10:33:00,81.0,48.0,29.95,SW,230,17.0,28.0,32,-99.99,,,-99.99,,2013-05-14 15:33:00,
2013-05-14 10:43:00,81.0,48.0,29.94,SW,230,20.0,28.0,32,-99.99,,,-99.99,,2013-05-14 15:43:00,
2013-05-14 10:53:00,82.0,48.0,29.94,SW,220,20.0,30.0,30,-99.99,,,-99.99,,2013-05-14 15:53:00,
2013-05-14 11:02:00,82.0,48.0,29.94,SW,220,20.0,30.0,30,-99.99,,,-99.99,,2013-05-14 16:02:00,
2013-05-14 11:12:00,82.0,50.0,29.94,SW,220,18.0,24.0,32,-99.99,,,-99.99,,2013-05-14 16:12:00,
2013-05-14 11:23:00,84.0,50.0,29.94,SW,220,20.0,25.0,30,-99.99,,,-99.99,,2013-05-14 16:23:00,
2013-05-14 11:33:00,84.0,50.0,29.94,SW,220,20.0,27.0,30,-99.99,,,-99.99,,2013-05-14 16:33:00,
2013-05-14 11:43:00,84.0,50.0,29.94,SW,220,23.0,28.0,30,-99.99,,,-99.99,,2013-05-14 16:43:00,
2013-05-14 11:54:00,86.0,50.0,29.94,SW,220,22.0,27.0,28,-99.99,,,-99.99,,2013-05-14 16:54:00,
2013-05-14 12:03:00,86.0,50.0,29.94,SW,220,22.0,27.0,28,-99.99,,,-99.99,,2013-05-14 17:03:00,
2013-05-14 12:13:00,88.0,52.0,29.93,SSW,210,17.0,28.0,29,-99.99,,,-99.99,,2013-05-14 17:13:00,
2013-05-14 12:24:00,88.0,48.0,29.93,SSW,210,17.0,30.0,25,-99.99,,,-99.99,,2013-05-14 17:24:00,
2013-05-14 12:32:00,90.0,50.0,29.93,SSW,210,15.0,28.0,25,-99.99,,,-99.99,,2013-05-14 17:32:00,
2013-05-14 12:43:00,90.0,50.0,29.93,SSW,200,20.0,24.0,25,-99.99,,,-99.99,,2013-05-14 17:43:00,
2013-05-14 12:52:00,90.0,50.0,29.93,South,190,14.0,23.0,25,-99.99,,,-99.99,,2013-05-14 17:52:00,
2013-05-14 13:02:00,90.0,50.0,29.93,South,190,14.0,23.0,25,-99.99,,,-99.99,,2013-05-14 18:02:00,
2013-05-14 13:12:00,88.0,54.0,29.92,South,190,20.0,24.0,31,-99.99,,,-99.99,,2013-05-14 18:12:00,
2013-05-14 13:22:00,88.0,54.0,29.92,South,190,16.0,25.0,31,-99.99,,,-99.99,,2013-05-14 18:22:00,
2013-05-14 13:32:00,90.0,54.0,29.92,South,190,18.0,24.0,29,-99.99,,,-99.99,,2013-05-14 18:32:00,
2013-05-14 13:42:00,90.0,54.0,29.91,South,190,16.0,24.0,29,-99.99,,,-99.99,,2013-05-14 18:42:00,
2013-05-14 13:52:00,90.0,52.0,29.91,South,190,18.0,-999.0,27,-99.99,,,-99.99,,2013-05-14 18:52:00,
2013-05-14 14:01:00,90.0,52.0,29.91,South,190,18.0,-999.0,27,-99.99,,,-99.99,,2013-05-14 19:01:00,
2013-05-14 14:11:00,91.0,52.0,29.90,SSW,210,17.0,25.0,26,-99.99,,,-99.99,,2013-05-14 19:11:00,
2013-05-14 14:22:00,91.0,48.0,29.90,SSW,210,15.0,27.0,22,-99.99,,,-99.99,,2013-05-14 19:22:00,
2013-05-14 14:32:00,91.0,50.0,29.89,South,190,20.0,24.0,24,-99.99,,,-99.99,,2013-05-14 19:32:00,
2013-05-14 14:42:00,91.0,48.0,29.89,South,190,22.0,27.0,22,-99.99,,,-99.99,,2013-05-14 19:42:00,
2013-05-14 14:52:00,91.0,48.0,29.89,South,190,18.0,28.0,22,-99.99,,,-99.99,,2013-05-14 19:52:00,
2013-05-14 15:02:00,91.0,48.0,29.89,South,190,18.0,28.0,22,-99.99,,,-99.99,,2013-05-14 20:02:00,
2013-05-14 15:11:00,90.0,54.0,29.89,South,180,21.0,28.0,29,-99.99,,,-99.99,,2013-05-14 20:11:00,
2013-05-14 15:23:00,90.0,54.0,29.89,South,170,21.0,28.0,29,-99.99,,,-99.99,,2013-05-14 20:23:00,
2013-05-14 15:32:00,90.0,54.0,29.88,South,180,18.0,27.0,29,-99.99,,,-99.99,,2013-05-14 20:32:00,
2013-05-14 15:44:00,90.0,54.0,29.88,South,180,23.0,29.0,29,-99.99,,,-99.99,,2013-05-14 20:44:00,
2013-05-14 15:52:00,90.0,54.0,29.88,South,180,20.0,30.0,29,-99.99,,,-99.99,,2013-05-14 20:52:00,
2013-05-14 16:03:00,90.0,54.0,29.88,South,180,20.0,30.0,29,-99.99,,,-99.99,,2013-05-14 21:03:00,
2013-05-14 16:12:00,90.0,54.0,29.88,South,180,20.0,25.0,29,-99.99,,,-99.99,,2013-05-14 21:12:00,
2013-05-14 16:23:00,90.0,50.0,29.87,South,180,21.0,25.0,25,-99.99,,,-99.99,,2013-05-14 21:23:00,
2013-05-14 16:33:00,90.0,52.0,29.87,South,180,14.0,28.0,27,-99.99,,,-99.99,,2013-05-14 21:33:00,
2013-05-14 16:42:00,90.0,52.0,29.87,South,180,18.0,28.0,27,-99.99,,,-99.99,,2013-05-14 21:42:00,
2013-05-14 16:52:00,90.0,50.0,29.86,South,180,17.0,21.0,25,-99.99,,,-99.99,,2013-05-14 21:52:00,
2013-05-14 17:03:00,90.0,50.0,29.86,South,180,17.0,21.0,25,-99.99,,,-99.99,,2013-05-14 22:03:00,
2013-05-14 17:13:00,90.0,50.0,29.86,South,180,21.0,25.0,25,-99.99,,,-99.99,,2013-05-14 22:13:00,
2013-05-14 17:24:00,90.0,54.0,29.85,South,180,18.0,23.0,29,-99.99,,,-99.99,,2013-05-14 22:24:00,
2013-05-14 17:34:00,90.0,52.0,29.85,South,180,17.0,25.0,27,-99.99,,,-99.99,,2013-05-14 22:34:00,
2013-05-14 17:45:00,90.0,52.0,29.85,South,180,15.0,27.0,27,-99.99,,,-99.99,,2013-05-14 22:45:00,
2013-05-14 17:54:00,88.0,52.0,29.85,South,170,18.0,23.0,29,-99.99,,,-99.99,,2013-05-14 22:54:00,
2013-05-14 18:03:00,88.0,52.0,29.85,South,170,18.0,23.0,29,-99.99,,,-99.99,,2013-05-14 23:03:00,
2013-05-14 18:12:00,88.0,52.0,29.85,South,180,18.0,23.0,29,-99.99,,,-99.99,,2013-05-14 23:12:00,
2013-05-14 18:21:00,88.0,50.0,29.84,South,180,17.0,23.0,27,-99.99,,,-99.99,,2013-05-14 23:21:00,
2013-05-14 18:32:00,88.0,50.0,29.84,South,180,15.0,24.0,27,-99.99,,,-99.99,,2013-05-14 23:32:00,
2013-05-14 18:44:00,88.0,50.0,29.84,South,180,15.0,24.0,27,-99.99,,,-99.99,,2013-05-14 23:44:00,
2013-05-14 18:52:00,86.0,52.0,29.83,South,180,14.0,24.0,30,-99.99,,,-99.99,,2013-05-14 23:52:00,
2013-05-14 19:02:00,86.0,52.0,29.83,South,180,14.0,24.0,30,-99.99,,,-99.99,,2013-05-15 00:02:00,
2013-05-14 19:11:00,84.0,52.0,29.83,South,180,15.0,-999.0,32,-99.99,,,-99.99,,2013-05-15 00:11:00,
2013-05-14 19:21:00,84.0,54.0,29.82,South,170,14.0,-999.0,34,-99.99,,,-99.99,,2013-05-15 00:21:00,
2013-05-14 19:32:00,84.0,54.0,29.82,South,170,12.0,16.0,34,-99.99,,,-99.99,,2013-05-15 00:32:00,
2013-05-14 19:41:00,82.0,54.0,29.82,South,170,12.0,17.0,37,-99.99,,,-99.99,,2013-05-15 00:41:00,
2013-05-14 19:51:00,82.0,55.0,29.82,South,170,10.0,-999.0,39,-99.99,,,-99.99,,2013-05-15 00:51:00,
2013-05-14 20:01:00,82.0,55.0,29.82,South,170,10.0,-999.0,39,-99.99,,,-99.99,,2013-05-15 01:01:00,
2013-05-14 20:11:00,82.0,55.0,29.82,SSE,160,12.0,17.0,39,-99.99,,,-99.99,,2013-05-15 01:11:00,
2013-05-14 20:21:00,81.0,55.0,29.82,SSE,160,12.0,-999.0,41,-99.99,,,-99.99,,2013-05-15 01:21:00,
2013-05-14 20:31:00,81.0,55.0,29.82,SSE,160,13.0,-999.0,41,-99.99,,,-99.99,,2013-05-15 01:31:00,
2013-05-14 20:42:00,81.0,55.0,29.82,SSE,160,13.0,-999.0,41,-99.99,,,-99.99,,2013-05-15 01:42:00,
2013-05-14 20:52:00,79.0,55.0,29.83,SSE,160,10.0,-999.0,44,-99.99,,,-99.99,,2013-05-15 01:52:00,
2013-05-14 21:02:00,79.0,55.0,29.83,SSE,160,10.0,-999.0,44,-99.99,,,-99.99,,2013-05-15 02:02:00,
2013-05-14 21:11:00,79.0,55.0,29.84,SSE,150,9.0,-999.0,44,-99.99,,,-99.99,,2013-05-15 02:11:00,
2013-05-14 21:21:00,75.0,55.0,29.85,SSE,150,8.0,-999.0,50,-99.99,,,-99.99,,2013-05-15 02:21:00,
2013-05-14 21:31:00,75.0,55.0,29.85,SSE,160,8.0,-999.0,50,-99.99,,,-99.99,,2013-05-15 02:31:00,
2013-05-14 21:42:00,73.0,57.0,29.85,SSE,160,9.0,-999.0,56,-99.99,,,-99.99,,2013-05-15 02:42:00,
2013-05-14 21:52:00,73.0,57.0,29.86,SSE,160,9.0,-999.0,56,-99.99,,,-99.99,,2013-05-15 02:52:00,
2013-05-14 22:01:00,73.0,57.0,29.86,SSE,160,9.0,-999.0,56,-99.99,,,-99.99,,2013-05-15 03:01:00,
2013-05-14 22:12:00,73.0,57.0,29.86,SSE,160,8.0,-999.0,56,-99.99,,,-99.99,,2013-05-15 03:12:00,
2013-05-14 22:22:00,73.0,57.0,29.86,SSE,160,8.0,-999.0,56,-99.99,,,-99.99,,2013-05-15 03:22:00,
2013-05-14 22:33:00,73.0,57.0,29.87,SSE,160,9.0,-999.0,56,-99.99,,,-99.99,,2013-05-15 03:33:00,
2013-05-14 22:44:00,73.0,57.0,29.87,SSE,160,9.0,-999.0,56,-99.99,,,-99.99,,2013-05-15 03:44:00,
2013-05-14 22:54:00,73.0,57.0,29.87,SSE,160,10.0,-999.0,56,-99.99,,,-99.99,,2013-05-15 03:54:00,
2013-05-14 23:03:00,73.0,57.0,29.87,SSE,160,10.0,-999.0,56,-99.99,,,-99.99,,2013-05-15 04:03:00,
2013-05-14 23:12:00,73.0,55.0,29.87,South,170,13.0,-999.0,53,-99.99,,,-99.99,,2013-05-15 04:12:00,
2013-05-14 23:24:00,73.0,55.0,29.87,South,170,10.0,-999.0,53,-99.99,,,-99.99,,2013-05-15 04:24:00,
2013-05-14 23:33:00,72.0,55.0,29.87,SSE,160,12.0,17.0,56,-99.99,,,-99.99,,2013-05-15 04:33:00,
2013-05-14 23:42:00,72.0,55.0,29.87,South,170,10.0,17.0,56,-99.99,,,-99.99,,2013-05-15 04:42:00,
2013-05-14 23:52:00,72.0,55.0,29.87,South,170,13.0,-999.0,56,-99.99,,,-99.99,,2013-05-15 04:52:00,